[[{"header":{"parameterUnit":"m.s-1","parameterCategory":2,"la1":30.2991,"la2":30.254,"lo1":-89.0895,"lo2":-89.0444,"dy":0.0017,"dx":0.0017,"nx":28,"ny":28,"refTime":"2023-10-19T09:00:00:Z","depth":"0","parameterNumber":2,"parameterNumberName":"U-component_of_CURRENTS"},"data":[0,0,0,0,0,0,0,0,0,0,0,0,0,0,0,0,0,0,0,0,0,0,0,0,0,0,0,0,0,0,0,0,0,0,0,0,0,0,0,0,0,0,0,0,0,0,0,0,0,0,0,0,0,0,0,0,0,0,-0.3165,-0.3167,0,-0.3251,-0.3252,-0.3252,-0.3293,-0.3294,-0.3294,-0.3294,-0.3255,-0.3253,-0.3252,0,0,0,0,0,0,0,0,0,0,0,0,0,-0.2964,-0.2968,-0.3165,-0.3167,-0.3168,-0.3251,-0.3252,-0.3253,-0.3293,-0.3294,-0.3294,-0.3295,-0.3255,-0.3254,-0.3252,0,0,0,0,0,0,0,0,0,0,0,0,0,-0.3046,-0.2969,-0.3165,-0.3203,-0.3207,-0.3251,-0.3252,-0.3253,-0.3293,-0.3294,-0.3294,-0.3295,-0.3256,-0.3254,-0.3252,-0.3224,0,0,-0.3245,-0.3244,0,0,0,0,0,0,0,0,-0.3041,-0.3053,-0.3195,-0.32,-0.3205,-0.3267,-0.3167,-0.3239,-0.3293,-0.3254,-0.3294,-0.3295,-0.325,-0.3249,-0.3257,-0.3222,-0.3221,-0.3245,-0.3243,-0.3242,-0.3242,0,0,0,0,0,0,0,-0.3036,-0.3049,-0.3194,-0.3197,-0.3203,-0.3191,-0.3204,-0.3181,-0.3241,-0.3258,-0.3262,-0.3281,-0.3251,-0.3259,-0.3256,-0.322,-0.3245,-0.3243,-0.3241,-0.324,-0.3082,-0.3079,0,0,0,0,0,0,-0.304,-0.3044,-0.3191,-0.3197,-0.313,-0.3195,-0.3208,-0.3242,-0.3244,-0.3248,-0.328,-0.3282,-0.3263,-0.3259,-0.3255,-0.3154,-0.3242,-0.324,-0.3239,-0.3085,-0.3082,-0.3078,0,0,0,0,0,0,-0.3036,-0.3053,-0.3188,-0.3125,-0.3143,-0.3199,-0.3235,-0.3243,-0.3254,-0.3263,-0.3263,-0.3283,-0.3263,-0.3258,-0.3211,-0.3156,-0.3239,-0.3237,-0.3088,-0.3084,-0.308,-0.2996,0,0,0,0,0,0,-0.303,-0.3051,-0.3047,-0.3127,-0.3147,-0.3186,-0.3236,-0.3245,-0.3267,-0.327,-0.3265,-0.3263,-0.3263,-0.3214,-0.3209,-0.3154,-0.3235,-0.3092,-0.3086,-0.3081,-0.3003,-0.299,-0.2979,0,0,0,0,0,-0.3022,-0.2979,-0.3047,-0.3063,-0.3151,-0.3185,-0.3191,-0.323,-0.3266,-0.3246,-0.3246,-0.3263,-0.3176,-0.321,-0.3205,-0.3148,-0.3095,-0.3088,-0.3082,-0.3008,-0.2992,-0.2979,0,0,0,0,0,0,-0.2837,-0.2984,-0.3058,-0.3052,-0.3121,-0.3193,-0.3157,-0.3226,-0.3216,-0.3206,-0.3234,-0.3228,-0.3167,-0.3165,-0.3203,-0.3084,-0.3134,-0.3127,-0.308,-0.3065,-0.3054,-0.3038,-0.3234,0,0,0,0,0,-0.2818,-0.2849,-0.2982,-0.2968,-0.3001,-0.3094,-0.3107,-0.3156,-0.3177,-0.3177,-0.318,-0.3162,-0.3135,-0.3109,-0.3084,-0.3019,-0.3015,-0.2975,-0.2963,-0.2953,-0.2933,-0.2898,-0.2882,-0.3057,-0.3057,-0.3057,0,0,-0.2742,-0.282,-0.2837,-0.2935,-0.2982,-0.3002,-0.3098,-0.3107,-0.3105,-0.3167,-0.3112,-0.3123,-0.3111,-0.304,-0.301,-0.303,-0.2894,-0.2945,-0.2936,-0.2922,-0.289,-0.2873,-0.2858,-0.3053,-0.3054,-0.3054,0,0,-0.2611,-0.268,-0.2688,-0.2741,-0.2832,-0.2891,-0.2902,-0.2988,-0.2998,-0.2981,-0.3016,-0.2986,-0.2952,-0.2925,-0.2911,-0.2811,-0.284,-0.2812,-0.2727,-0.2693,-0.2679,-0.2667,-0.2619,-0.2603,-0.2796,-0.2796,-0.2796,0,-0.2526,-0.2575,-0.2676,-0.2692,-0.2724,-0.2844,-0.2852,-0.2861,-0.2913,-0.2919,-0.2935,-0.29,-0.2883,-0.2817,-0.2779,-0.278,-0.2779,-0.279,-0.2679,-0.2667,-0.2656,-0.261,-0.2594,-0.2791,-0.2792,-0.2792,-0.2792,0,-0.2439,-0.2471,-0.245,-0.2548,-0.2572,-0.2581,-0.266,-0.2664,-0.2708,-0.2749,-0.2712,-0.2699,-0.2691,-0.2669,-0.2689,-0.2605,-0.2635,-0.2681,-0.2723,-0.2634,-0.259,-0.2575,-0.2784,-0.2786,-0.2787,-0.2788,0,0,-0.2313,-0.2397,-0.2397,-0.2444,-0.2517,-0.2543,-0.2507,-0.2557,-0.2564,-0.2558,-0.2557,-0.2483,-0.2529,-0.2514,-0.2539,-0.2491,-0.2396,-0.2549,-0.2549,-0.2511,-0.2321,-0.2223,-0.2197,-0.2448,-0.2445,-0.2443,-0.2316,0,-0.225,-0.2266,-0.2318,-0.2318,-0.235,-0.2426,-0.2401,-0.2435,-0.2464,-0.2468,-0.2454,-0.2448,-0.2455,-0.2472,-0.2415,-0.2435,-0.2355,-0.2425,-0.2403,-0.2401,-0.2335,-0.2175,-0.208,-0.1949,-0.2301,-0.2299,-0.2297,0,-0.2191,-0.2224,-0.2225,-0.2293,-0.2312,-0.2304,-0.2348,-0.2346,-0.2358,-0.2382,-0.2365,-0.2395,-0.2328,-0.2359,-0.2266,-0.2328,-0.2292,-0.2281,-0.2277,-0.2203,-0.2273,-0.2098,-0.1909,-0.1912,-0.2273,-0.2275,-0.2277,0,-0.2125,-0.2168,-0.2179,-0.2196,-0.2263,-0.2263,-0.2293,-0.2315,-0.2339,-0.2337,-0.2355,-0.2307,-0.2296,-0.2242,-0.2199,-0.2249,-0.21,-0.2175,-0.2027,-0.2022,-0.1937,-0.1927,-0.1753,-0.2055,-0.2055,-0.2056,-0.2056,0,-0.2074,-0.2083,-0.2152,-0.2159,-0.2175,-0.2227,-0.2241,-0.2262,-0.2298,-0.2276,-0.2313,-0.2271,-0.2271,-0.2204,-0.2164,-0.202,-0.2058,-0.1955,-0.1959,-0.1901,-0.189,-0.1891,-0.1941,-0.2051,-0.2052,-0.2053,-0.2054,0,-0.1996,-0.2046,-0.2063,-0.2123,-0.2148,-0.2151,-0.2234,-0.2253,-0.228,-0.225,-0.2249,-0.2249,-0.2138,-0.2106,-0.2011,-0.1958,-0.1808,-0.1789,-0.1705,-0.1698,-0.1571,-0.162,-0.1452,-0.1409,-0.1603,-0.1599,-0.1596,0,-0.1957,-0.1958,-0.2021,-0.2046,-0.2072,-0.2113,-0.2154,-0.2227,-0.2229,-0.2189,-0.215,-0.2081,-0.1929,-0.1777,-0.1709,-0.158,-0.1633,-0.1434,-0.1479,-0.1479,-0.154,-0.1606,-0.159,-0.1337,-0.1332,-0.1328,-0.1325,0,-0.1874,-0.1892,-0.1918,-0.1952,-0.1997,-0.1993,-0.2025,-0.2024,-0.2041,-0.1991,-0.18,-0.1676,-0.159,-0.141,-0.1336,-0.1275,-0.1404,-0.1345,-0.1369,-0.1293,-0.1331,-0.1321,-0.1519,-0.1289,-0.1293,-0.1295,-0.1297,-0.1299,-0.1804,-0.1797,-0.1822,-0.1819,-0.1863,-0.1741,-0.1647,-0.1646,-0.1525,-0.1307,-0.1349,-0.1059,-0.1093,-0.0965,-0.0972,-0.0998,-0.1099,-0.0989,-0.1041,-0.1103,-0.106,-0.115,-0.0921,-0.0922,-0.0923,-0.0925,-0.0925,0,-0.1698,-0.1677,-0.1691,-0.1616,-0.1523,-0.1581,-0.1473,-0.1313,-0.1039,-0.0902,-0.0656,-0.0401,-0.0398,-0.055,-0.0716,-0.0725,-0.076,-0.0742,-0.0835,-0.0828,-0.0904,-0.0892,-0.0617,-0.0617,-0.0617,-0.0617,-0.0617,-0.0617,-0.1654,-0.1595,-0.156,-0.1269,-0.12,-0.0954,-0.0812,-0.0609,-0.0455,-0.0084,0.0125,0.0224,-0.0024,-0.0397,-0.0641,-0.0652,-0.0695,-0.0649,-0.0712,-0.0812,-0.0842,-0.087,-0.0867,-0.0592,-0.0592,-0.0598,-0.0598,-0.0598]},{"header":{"parameterUnit":"m.s-1","parameterCategory":2,"la1":30.2991,"la2":30.254,"lo1":-89.0895,"lo2":-89.0444,"dy":0.0017,"dx":0.0017,"nx":28,"ny":28,"refTime":"2023-10-19T09:00:00:Z","depth":"0","parameterNumber":3,"parameterNumberName":"V-component_of_CURRENTS"},"data":[0,0,0,0,0,0,0,0,0,0,0,0,0,0,0,0,0,0,0,0,0,0,0,0,0,0,0,0,0,0,0,0,0,0,0,0,0,0,0,0,0,0,0,0,0,0,0,0,0,0,0,0,0,0,0,0,0,0,-0.0092,-0.009,0,0.0109,0.0111,0.0114,0.0265,0.0266,0.0267,0.0268,0.0475,0.0479,0.0484,0,0,0,0,0,0,0,0,0,0,0,0,0,-0.0281,-0.0278,-0.0092,-0.0089,-0.0087,0.0108,0.0111,0.0114,0.0265,0.0266,0.0268,0.0269,0.0474,0.0479,0.0484,0,0,0,0,0,0,0,0,0,0,0,0,0,-0.015,-0.0277,-0.0092,0.001,0.0021,0.0108,0.0112,0.0115,0.0264,0.0266,0.0268,0.027,0.0472,0.0478,0.0485,0.049,0,0,0.0505,0.0508,0,0,0,0,0,0,0,0,-0.0157,-0.0143,-0.0007,0.0003,0.0015,0.0162,0.0121,0.024,0.0264,0.0174,0.0268,0.027,0.0368,0.0383,0.042,0.05,0.0509,0.0506,0.051,0.0513,0.0514,0,0,0,0,0,0,0,-0.0167,-0.015,-0.001,-0.0005,0.0009,0.0067,0.0088,0.0145,0.0261,0.0182,0.0193,0.0211,0.0375,0.0413,0.0426,0.0512,0.0505,0.0511,0.0515,0.0518,0.0598,0.0596,0,0,0,0,0,0,-0.0201,-0.0159,-0.0016,-0.0004,-0.0071,0.0069,0.0092,0.0115,0.026,0.0284,0.021,0.0218,0.0401,0.0418,0.0434,0.0439,0.0512,0.0519,0.0522,0.06,0.0597,0.0595,0,0,0,0,0,0,-0.0205,-0.019,-0.0025,-0.0079,-0.0054,0.007,0.0095,0.0118,0.0158,0.0281,0.0305,0.0226,0.0403,0.0425,0.046,0.0449,0.0522,0.0528,0.0602,0.0599,0.0596,0.0456,0,0,0,0,0,0,-0.0212,-0.0193,-0.02,-0.0081,-0.0052,0.0009,0.0094,0.012,0.0166,0.0178,0.0302,0.0324,0.0406,0.0449,0.0467,0.0459,0.0533,0.0604,0.06,0.0597,0.0463,0.0449,0.0437,0,0,0,0,0,-0.0219,-0.0241,-0.0201,-0.0185,-0.0062,0.0008,0.0027,0.0123,0.0164,0.0168,0.0241,0.032,0.0441,0.0453,0.0474,0.0468,0.0606,0.0601,0.0597,0.0469,0.0452,0.0437,0,0,0,0,0,0,-0.0328,-0.0225,-0.0178,-0.0168,-0.0093,0.0032,0.0037,0.0106,0.0169,0.0175,0.0294,0.0318,0.0351,0.0413,0.0424,0.0477,0.0537,0.0537,0.0433,0.0417,0.0404,0.0381,0.0538,0,0,0,0,0,-0.0358,-0.0344,-0.0234,-0.0227,-0.0201,-0.0086,-0.0051,0.0017,0.0094,0.0126,0.0211,0.0288,0.0349,0.0383,0.0447,0.0467,0.0527,0.0476,0.0463,0.0451,0.0444,0.0506,0.0499,0.0582,0.0582,0.0582,0,0,-0.0393,-0.0341,-0.0329,-0.025,-0.0188,-0.0156,-0.006,-0.002,0.0009,0.0133,0.0173,0.0245,0.0342,0.0373,0.0393,0.0425,0.0455,0.0446,0.0436,0.0435,0.0501,0.0494,0.0487,0.0579,0.0579,0.058,0,0,-0.0452,-0.0419,-0.0417,-0.0372,-0.0295,-0.0229,-0.0226,-0.0115,-0.0069,-0.0032,0.0069,0.0116,0.021,0.0281,0.0328,0.0272,0.0383,0.0299,0.022,0.028,0.0274,0.027,0.032,0.0322,0.0294,0.0293,0.0293,0,-0.0495,-0.0472,-0.0409,-0.0398,-0.0368,-0.0272,-0.0258,-0.021,-0.0101,-0.0067,-0.0047,0.0095,0.0165,0.023,0.0206,0.0245,0.0297,0.0275,0.0264,0.0261,0.0259,0.0312,0.0315,0.0286,0.0287,0.0288,0.0288,0,-0.0532,-0.0523,-0.0531,-0.0478,-0.0449,-0.0432,-0.0353,-0.0324,-0.0272,-0.0199,-0.0139,-0.0055,0.0041,0.0061,0.0114,0.0144,0.019,0.024,0.0304,0.0242,0.0302,0.0308,0.0276,0.0278,0.028,0.0282,0,0,-0.0582,-0.0556,-0.0555,-0.0545,-0.0488,-0.0461,-0.0449,-0.038,-0.035,-0.029,-0.0238,-0.0172,-0.0108,-0.0054,0.0029,0.0062,0.0074,0.0128,0.0135,0.0177,0.0204,0.0249,0.0261,0.013,0.013,0.013,0.0246,0,-0.0614,-0.0629,-0.0596,-0.0603,-0.06,-0.0533,-0.0518,-0.0458,-0.04,-0.0339,-0.0262,-0.0191,-0.0154,-0.0105,-0.0073,0.0062,0.0086,0.0038,0.0259,0.0265,0.0313,0.0268,0.0321,0.043,0.0253,0.0254,0.0255,0,-0.0642,-0.0651,-0.067,-0.0651,-0.064,-0.0633,-0.0581,-0.0551,-0.0461,-0.0412,-0.0344,-0.0258,-0.0186,-0.0157,-0.0003,-0.003,0.0057,0.0136,0.0145,0.0242,0.0321,0.0467,0.0449,0.0555,0.0265,0.0264,0.0264,0,-0.0698,-0.0694,-0.0717,-0.0712,-0.068,-0.0672,-0.0648,-0.0573,-0.0522,-0.0448,-0.039,-0.0301,-0.0215,-0.0123,0.0031,0.0022,0.02,0.0226,0.034,0.0345,0.046,0.0474,0.0573,0.0303,0.0302,0.0302,0.0302,0,-0.0741,-0.0754,-0.0748,-0.0762,-0.0776,-0.073,-0.0711,-0.0671,-0.0574,-0.0453,-0.0426,-0.03,-0.0202,-0.007,0.0026,0.021,0.0206,0.0317,0.0376,0.041,0.0418,0.0575,0.0611,0.0306,0.0305,0.0304,0.0304,0,-0.0791,-0.0789,-0.0813,-0.0806,-0.0806,-0.0816,-0.0751,-0.0678,-0.0628,-0.0465,-0.0431,-0.0286,-0.0116,-0.0024,0.0163,0.0242,0.0468,0.0446,0.0467,0.0525,0.0707,0.0732,0.0885,0.0976,0.058,0.0582,0.0584,0,-0.0814,-0.0836,-0.086,-0.0861,-0.0858,-0.0856,-0.0789,-0.0717,-0.0582,-0.0392,-0.0254,-0.0127,0.0093,0.0298,0.0379,0.0514,0.0583,0.0652,0.0628,0.0714,0.0787,0.0788,0.0853,0.0726,0.0729,0.0731,0.0732,0,-0.0854,-0.0864,-0.0887,-0.0869,-0.0828,-0.0762,-0.0649,-0.0561,-0.0361,-0.0204,0.012,0.0274,0.0408,0.0578,0.0626,0.0707,0.0742,0.07,0.0802,0.0907,0.0906,0.1024,0.0641,0.0751,0.0749,0.0748,0.0747,0.0746,-0.0866,-0.0878,-0.086,-0.0815,-0.076,-0.0564,-0.0468,-0.0271,-0.0024,0.0298,0.0465,0.0746,0.0858,0.0925,0.0932,0.0963,0.0918,0.1034,0.1057,0.1049,0.113,0.0768,0.0935,0.0934,0.0933,0.0933,0.0932,0,-0.0761,-0.0756,-0.0766,-0.0653,-0.0498,-0.0492,-0.0254,-0.0095,0.0256,0.0527,0.0851,0.1262,0.1322,0.1281,0.1271,0.1335,0.133,0.1371,0.1393,0.1445,0.1153,0.1152,0.1359,0.1359,0.1359,0.1358,0.1358,0.1358,-0.0692,-0.0622,-0.0589,-0.0335,-0.0271,-0.0009,0.0146,0.0329,0.0531,0.0973,0.1262,0.1506,0.1648,0.1641,0.1633,0.1632,0.1759,0.1709,0.1775,0.1571,0.1541,0.1512,0.152,0.1801,0.1801,0.2079,0.2081,0.2083]}],[{"header":{"parameterUnit":"m.s-1","parameterCategory":2,"la1":30.2991,"la2":30.254,"lo1":-89.0895,"lo2":-89.0444,"dy":0.0017,"dx":0.0017,"nx":28,"ny":28,"refTime":"2023-10-19T09:00:00:Z","depth":"2","parameterNumber":2,"parameterNumberName":"U-component_of_CURRENTS"},"data":[0,0,0,0,0,0,0,0,0,0,0,0,0,0,0,0,0,0,0,0,0,0,0,0,0,0,0,0,0,0,0,0,0,0,0,0,0,0,0,0,0,0,0,0,0,0,0,0,0,0,0,0,0,0,0,0,0,0,-0.2316,-0.2317,0,-0.2359,-0.2359,-0.2359,-0.2373,-0.2373,-0.2374,-0.2375,-0.2455,-0.2457,-0.2458,0,0,0,0,0,0,0,0,0,0,0,0,0,-0.2243,-0.2243,-0.2316,-0.2317,-0.2318,-0.2359,-0.2359,-0.2358,-0.2373,-0.2373,-0.2374,-0.2375,-0.2455,-0.2456,-0.2458,0,0,0,0,0,0,0,0,0,0,0,0,0,-0.227,-0.2243,-0.2315,-0.2337,-0.234,-0.2359,-0.2359,-0.2358,-0.2372,-0.2373,-0.2374,-0.2375,-0.2454,-0.2456,-0.2459,-0.2452,0,0,-0.2465,-0.2466,0,0,0,0,0,0,0,0,-0.2268,-0.2271,-0.2333,-0.2336,-0.234,-0.237,-0.2363,-0.2395,-0.2372,-0.235,-0.2375,-0.2376,-0.2436,-0.2439,-0.2431,-0.2456,-0.2459,-0.2466,-0.2467,-0.2468,-0.2469,0,0,0,0,0,0,0,-0.2267,-0.227,-0.2323,-0.2334,-0.2339,-0.2345,-0.2349,-0.2368,-0.238,-0.2352,-0.2356,-0.2375,-0.2437,-0.2429,-0.2433,-0.246,-0.2466,-0.2468,-0.2469,-0.247,-0.2555,-0.2556,0,0,0,0,0,0,-0.2279,-0.2268,-0.2322,-0.2325,-0.2317,-0.2346,-0.235,-0.2351,-0.2379,-0.2387,-0.2375,-0.2376,-0.2424,-0.2431,-0.2437,-0.2452,-0.2468,-0.247,-0.2471,-0.2555,-0.2556,-0.2557,0,0,0,0,0,0,-0.2277,-0.2283,-0.232,-0.2306,-0.2313,-0.2348,-0.2348,-0.2352,-0.2368,-0.2397,-0.2404,-0.2391,-0.2425,-0.2433,-0.2482,-0.2454,-0.2471,-0.2473,-0.2553,-0.2555,-0.2556,-0.2469,0,0,0,0,0,0,-0.2274,-0.2281,-0.229,-0.2307,-0.2315,-0.2336,-0.2348,-0.2352,-0.2382,-0.2384,-0.2413,-0.242,-0.2427,-0.2479,-0.2484,-0.2458,-0.2475,-0.2552,-0.2554,-0.2556,-0.247,-0.2467,-0.2464,0,0,0,0,0,-0.2271,-0.2283,-0.229,-0.2298,-0.2324,-0.2337,-0.234,-0.2362,-0.2382,-0.238,-0.2419,-0.242,-0.2493,-0.2482,-0.2488,-0.2461,-0.2551,-0.2554,-0.2556,-0.2472,-0.2468,-0.2464,0,0,0,0,0,0,-0.2257,-0.2287,-0.2294,-0.2314,-0.2328,-0.2343,-0.2355,-0.2373,-0.2398,-0.241,-0.2436,-0.2446,-0.2464,-0.2498,-0.2485,-0.2498,-0.2521,-0.2524,-0.2455,-0.2451,-0.2448,-0.243,-0.2477,0,0,0,0,0,-0.2259,-0.2267,-0.2296,-0.2306,-0.2318,-0.2338,-0.2352,-0.2365,-0.2393,-0.2404,-0.2426,-0.2459,-0.2472,-0.2494,-0.2506,-0.2529,-0.2522,-0.252,-0.2517,-0.2514,-0.2508,-0.2481,-0.2473,-0.2563,-0.2563,-0.2563,0,0,-0.2254,-0.2274,-0.2278,-0.2303,-0.2314,-0.2323,-0.2346,-0.2366,-0.2371,-0.2411,-0.2427,-0.2441,-0.2476,-0.248,-0.2494,-0.2512,-0.2483,-0.2516,-0.2512,-0.2509,-0.2482,-0.2472,-0.2464,-0.2565,-0.2565,-0.2564,0,0,-0.2238,-0.2266,-0.2263,-0.2279,-0.231,-0.2323,-0.2336,-0.2358,-0.2366,-0.2392,-0.2407,-0.2417,-0.2461,-0.2455,-0.2466,-0.2465,-0.2455,-0.2479,-0.2453,-0.2426,-0.2417,-0.2409,-0.2366,-0.2355,-0.2489,-0.2489,-0.2489,0,-0.2228,-0.2235,-0.2264,-0.227,-0.2288,-0.2326,-0.2328,-0.2339,-0.2372,-0.2376,-0.2396,-0.2419,-0.2437,-0.2429,-0.2424,-0.2448,-0.2437,-0.2453,-0.2416,-0.2408,-0.2401,-0.236,-0.2348,-0.2485,-0.2485,-0.2486,-0.2486,0,-0.2205,-0.2222,-0.2226,-0.2241,-0.226,-0.2272,-0.2301,-0.2314,-0.2339,-0.2346,-0.2346,-0.2363,-0.2379,-0.2376,-0.24,-0.2363,-0.2369,-0.2396,-0.2409,-0.2385,-0.2345,-0.2334,-0.2479,-0.2481,-0.2482,-0.2483,0,0,-0.2138,-0.2196,-0.2195,-0.2212,-0.2251,-0.2263,-0.2275,-0.2288,-0.2299,-0.2308,-0.2305,-0.23,-0.2307,-0.2321,-0.2334,-0.2313,-0.2239,-0.2338,-0.2339,-0.2267,-0.2166,-0.2069,-0.2049,-0.2259,-0.2257,-0.2256,-0.2148,0,-0.2104,-0.2119,-0.2154,-0.2169,-0.2186,-0.2229,-0.2238,-0.2258,-0.2278,-0.2284,-0.228,-0.2284,-0.2289,-0.2295,-0.2266,-0.2261,-0.2213,-0.2265,-0.2228,-0.2226,-0.2117,-0.2034,-0.1908,-0.1793,-0.2138,-0.2136,-0.2135,0,-0.2059,-0.2085,-0.2095,-0.2153,-0.2161,-0.2171,-0.2204,-0.2219,-0.2236,-0.2251,-0.2244,-0.2257,-0.2226,-0.2241,-0.2173,-0.2211,-0.2173,-0.2156,-0.2152,-0.2085,-0.2109,-0.1882,-0.1761,-0.2118,-0.2119,-0.212,-0.2121,0,-0.1999,-0.2042,-0.2055,-0.2072,-0.2135,-0.2141,-0.2169,-0.2197,-0.2211,-0.2226,-0.2234,-0.2212,-0.2201,-0.2159,-0.2117,-0.215,-0.2033,-0.208,-0.1941,-0.1934,-0.183,-0.1816,-0.1996,-0.1997,-0.1997,-0.1997,-0.1997,0,-0.1956,-0.1966,-0.2031,-0.204,-0.2052,-0.2109,-0.2118,-0.2144,-0.2178,-0.2179,-0.2208,-0.2187,-0.2181,-0.2126,-0.2091,-0.1963,-0.2003,-0.1898,-0.1886,-0.1796,-0.1781,-0.2086,-0.2098,-0.1993,-0.1994,-0.1995,-0.1995,0,-0.1887,-0.1933,-0.195,-0.2009,-0.2025,-0.2031,-0.2088,-0.2097,-0.2142,-0.2142,-0.2147,-0.2155,-0.207,-0.2032,-0.1955,-0.1908,-0.182,-0.176,-0.1642,-0.1616,-0.1748,-0.1757,-0.1597,-0.1592,-0.1588,-0.1585,-0.1582,0,-0.1852,-0.1854,-0.1907,-0.1916,-0.1939,-0.1968,-0.1983,-0.2055,-0.2062,-0.2103,-0.2082,-0.2033,-0.1962,-0.1805,-0.1693,-0.1567,-0.1666,-0.1398,-0.1427,-0.1694,-0.17,-0.1716,-0.173,-0.1254,-0.1249,-0.1245,-0.1242,0,-0.1775,-0.1792,-0.181,-0.1812,-0.1829,-0.1849,-0.1875,-0.1885,-0.1956,-0.1972,-0.1955,-0.1916,-0.1761,-0.1559,-0.1389,-0.1314,-0.1415,-0.1305,-0.1592,-0.1379,-0.1363,-0.1373,-0.1399,-0.1204,-0.1207,-0.121,-0.1212,-0.1214,-0.1703,-0.1685,-0.169,-0.1681,-0.1693,-0.1671,-0.1652,-0.1696,-0.1691,-0.1669,-0.1756,-0.1647,-0.1587,-0.1237,-0.1118,-0.1002,-0.111,-0.108,-0.1097,-0.1117,-0.11,-0.1079,-0.0862,-0.0863,-0.0865,-0.0866,-0.0867,0,-0.1584,-0.1567,-0.1556,-0.1524,-0.1472,-0.1526,-0.1526,-0.1483,-0.1432,-0.1444,-0.143,-0.1257,-0.1083,-0.1003,-0.0756,-0.0699,-0.0732,-0.0675,-0.0737,-0.0773,-0.0806,-0.0778,-0.0451,-0.045,-0.0449,-0.0448,0,0,-0.1522,-0.1447,-0.1424,-0.128,-0.1269,-0.1162,-0.1137,-0.1107,-0.1078,-0.1007,-0.0963,-0.1037,-0.0999,-0.0761,-0.067,-0.0517,-0.065,-0.0481,-0.0811,-0.0921,-0.0953,-0.1025,-0.1019,0,0,0,0,0]},{"header":{"parameterUnit":"m.s-1","parameterCategory":2,"la1":30.2991,"la2":30.254,"lo1":-89.0895,"lo2":-89.0444,"dy":0.0017,"dx":0.0017,"nx":28,"ny":28,"refTime":"2023-10-19T09:00:00:Z","depth":"2","parameterNumber":3,"parameterNumberName":"V-component_of_CURRENTS"},"data":[0,0,0,0,0,0,0,0,0,0,0,0,0,0,0,0,0,0,0,0,0,0,0,0,0,0,0,0,0,0,0,0,0,0,0,0,0,0,0,0,0,0,0,0,0,0,0,0,0,0,0,0,0,0,0,0,0,0,-0.0386,-0.0386,0,-0.0323,-0.0322,-0.0322,-0.0272,-0.0272,-0.0271,-0.0271,-0.0148,-0.0145,-0.0142,0,0,0,0,0,0,0,0,0,0,0,0,0,-0.0425,-0.0425,-0.0386,-0.0386,-0.0385,-0.0323,-0.0322,-0.0321,-0.0272,-0.0272,-0.0271,-0.027,-0.0148,-0.0145,-0.0142,0,0,0,0,0,0,0,0,0,0,0,0,0,-0.039,-0.0425,-0.0387,-0.0353,-0.0349,-0.0323,-0.0322,-0.0321,-0.0272,-0.0272,-0.0271,-0.027,-0.015,-0.0145,-0.0141,-0.0129,0,0,-0.0128,-0.0126,0,0,0,0,0,0,0,0,-0.0392,-0.0388,-0.0359,-0.0355,-0.0351,-0.0305,-0.0291,-0.0254,-0.0272,-0.0301,-0.0271,-0.027,-0.0195,-0.0187,-0.0177,-0.0123,-0.0118,-0.0128,-0.0125,-0.0123,-0.0122,0,0,0,0,0,0,0,-0.0394,-0.0391,-0.0361,-0.0358,-0.0353,-0.0327,-0.0322,-0.0284,-0.0252,-0.0299,-0.0295,-0.0288,-0.0193,-0.0182,-0.0174,-0.0116,-0.0128,-0.0124,-0.0122,-0.012,0.0025,0.0026,0,0,0,0,0,0,-0.0405,-0.0393,-0.0363,-0.0359,-0.037,-0.0327,-0.0321,-0.032,-0.0253,-0.0243,-0.0289,-0.0286,-0.0189,-0.0179,-0.0169,-0.0129,-0.0123,-0.0119,-0.0117,0.0024,0.0025,0.0027,0,0,0,0,0,0,-0.0407,-0.0404,-0.0366,-0.0374,-0.0368,-0.0328,-0.0327,-0.0319,-0.0302,-0.0247,-0.0235,-0.0279,-0.0188,-0.0175,-0.0128,-0.0124,-0.0118,-0.0114,0.0022,0.0024,0.0026,-0.0061,0,0,0,0,0,0,-0.0408,-0.0405,-0.0407,-0.0376,-0.0368,-0.0351,-0.0327,-0.0319,-0.03,-0.0295,-0.0234,-0.0223,-0.0187,-0.0135,-0.0124,-0.0118,-0.011,0.0021,0.0023,0.0025,-0.006,-0.0062,-0.0064,0,0,0,0,0,-0.041,-0.0417,-0.0408,-0.0404,-0.0373,-0.0351,-0.0345,-0.0313,-0.03,-0.0295,-0.025,-0.0224,-0.0111,-0.0132,-0.0119,-0.0111,0.0019,0.0022,0.0025,-0.0059,-0.0062,-0.0064,0,0,0,0,0,0,-0.0438,-0.0412,-0.0401,-0.0401,-0.0378,-0.0343,-0.0337,-0.0316,-0.0278,-0.0272,-0.0219,-0.0204,-0.0162,-0.0116,-0.014,-0.0056,-0.0037,-0.0031,-0.0104,-0.0107,-0.0109,-0.0122,-0.0107,0,0,0,0,0,-0.0447,-0.0446,-0.0415,-0.0417,-0.0407,-0.0373,-0.036,-0.0339,-0.0302,-0.0286,-0.0243,-0.0187,-0.0141,-0.0109,-0.0065,-0.0024,0.0016,-0.0003,-0.0005,-0.0008,-0.0005,0.0054,0.0056,0.0036,0.0036,0.0036,0,0,-0.046,-0.0446,-0.0446,-0.0423,-0.0404,-0.0392,-0.0363,-0.0347,-0.0332,-0.0277,-0.0244,-0.0203,-0.0133,-0.0091,-0.0066,-0.0051,0.002,-0.0004,-0.0007,-0.0003,0.0057,0.0059,0.006,0.0038,0.0038,0.0038,0,0,-0.0487,-0.0474,-0.0479,-0.0461,-0.0435,-0.041,-0.0406,-0.0369,-0.0346,-0.0312,-0.0267,-0.0219,-0.015,-0.01,-0.0065,-0.0046,-0.0003,-0.0027,-0.0044,0.0013,0.0014,0.0016,0.0057,0.0063,-0.0019,-0.0019,-0.0019,0,-0.0504,-0.0506,-0.0477,-0.0475,-0.0464,-0.042,-0.042,-0.039,-0.0341,-0.0319,-0.0308,-0.0203,-0.0152,-0.009,-0.0084,-0.0054,-0.0022,-0.0051,0.0006,0.0009,0.0012,0.0053,0.0061,-0.0023,-0.0022,-0.0022,-0.0022,0,-0.0529,-0.0529,-0.0531,-0.0513,-0.0496,-0.0491,-0.0446,-0.0422,-0.0392,-0.0356,-0.0299,-0.0234,-0.0167,-0.0142,-0.0111,-0.0057,-0.0043,-0.0019,-0.0001,0.0008,0.0052,0.0061,-0.0028,-0.0027,-0.0026,-0.0025,0,0,-0.0573,-0.0554,-0.0554,-0.0554,-0.0517,-0.0508,-0.0479,-0.0439,-0.0416,-0.0364,-0.033,-0.0253,-0.0217,-0.0173,-0.0122,-0.0071,-0.003,-0.0042,-0.0037,-0.0027,0.0082,0.01,0.0112,-0.0006,-0.0004,-0.0003,0.0097,0,-0.0601,-0.0618,-0.059,-0.0595,-0.0599,-0.0549,-0.0526,-0.0481,-0.0434,-0.0387,-0.0311,-0.0262,-0.0226,-0.02,-0.0143,-0.0054,-0.0006,-0.006,0.0095,0.01,0.0094,0.0124,0.0099,0.0188,0.0107,0.0109,0.011,0,-0.063,-0.0639,-0.0658,-0.064,-0.0634,-0.0626,-0.0582,-0.0553,-0.0471,-0.0433,-0.0367,-0.0308,-0.0221,-0.0198,-0.0048,-0.0088,-0.0012,0.0053,0.0059,0.0114,0.0136,0.0174,0.0209,0.0126,0.0125,0.0124,0.0122,0,-0.0684,-0.0681,-0.0702,-0.0698,-0.0669,-0.0662,-0.0641,-0.0573,-0.0543,-0.0462,-0.0427,-0.0323,-0.0259,-0.0156,-0.0023,-0.0035,0.0137,0.0144,0.0232,0.0233,0.0266,0.0268,0.0246,0.0246,0.0245,0.0245,0.0245,0,-0.0726,-0.0738,-0.0732,-0.0745,-0.0761,-0.0717,-0.0708,-0.0666,-0.0596,-0.0562,-0.0458,-0.0398,-0.0246,-0.0129,-0.0025,0.0137,0.0143,0.0236,0.0268,0.0235,0.0234,0.0226,0.0223,0.0249,0.0248,0.0247,0.0247,0,-0.0774,-0.0771,-0.0795,-0.0788,-0.0789,-0.08,-0.0768,-0.0758,-0.0675,-0.0626,-0.0602,-0.044,-0.0279,-0.0126,0.0061,0.0147,0.0287,0.034,0.0282,0.0305,0.034,0.0332,0.0447,0.0449,0.045,0.0451,0.0452,0,-0.0798,-0.0818,-0.0842,-0.087,-0.087,-0.0878,-0.0886,-0.0816,-0.0799,-0.0649,-0.0633,-0.0451,-0.032,-0.0029,0.0158,0.0353,0.0344,0.0425,0.0405,0.0346,0.0365,0.0354,0.0343,0.0411,0.0412,0.0412,0.0413,0,-0.0843,-0.0852,-0.0879,-0.0947,-0.0975,-0.0996,-0.0997,-0.099,-0.0898,-0.0831,-0.0699,-0.0571,-0.0248,-0.0009,0.0255,0.0357,0.039,0.0441,0.0421,0.0357,0.0319,0.0335,0.0325,0.0417,0.0416,0.0416,0.0416,0.0416,-0.0874,-0.0914,-0.0963,-0.1021,-0.1063,-0.111,-0.111,-0.1096,-0.106,-0.0916,-0.0805,-0.0565,-0.0291,0.0111,0.0293,0.0474,0.0469,0.0491,0.0487,0.0483,0.0454,0.0421,0.0531,0.0531,0.0531,0.0531,0.0532,0,-0.0928,-0.0971,-0.1036,-0.1106,-0.1158,-0.1165,-0.1176,-0.1137,-0.1096,-0.0941,-0.0807,-0.051,-0.0224,0.0085,0.0388,0.0537,0.0517,0.0543,0.0491,0.0486,0.0482,0.045,0.0527,0.0528,0.0528,0.0529,0,0,-0.096,-0.1043,-0.1082,-0.1178,-0.1215,-0.1245,-0.1242,-0.1175,-0.1051,-0.0879,-0.0691,-0.0515,-0.0148,0.0039,0.024,0.0414,0.0402,0.0416,0.0402,0.0312,0.0306,0.0436,0.0381,0,0,0,0,0]}],[{"header":{"parameterUnit":"m.s-1","parameterCategory":2,"la1":30.2991,"la2":30.254,"lo1":-89.0895,"lo2":-89.0444,"dy":0.0017,"dx":0.0017,"nx":28,"ny":28,"refTime":"2023-10-19T09:00:00:Z","depth":"4","parameterNumber":2,"parameterNumberName":"U-component_of_CURRENTS"},"data":[0,0,0,0,0,0,0,0,0,0,0,0,0,0,0,0,0,0,0,0,0,0,0,0,0,0,0,0,0,0,0,0,0,0,0,0,0,0,0,0,0,0,0,0,0,0,0,0,0,0,0,0,0,0,0,0,0,0,-0.1553,-0.1553,0,-0.1577,-0.1577,-0.1577,-0.1595,-0.1595,-0.1595,-0.1595,-0.1636,-0.1637,-0.1638,0,0,0,0,0,0,0,0,0,0,0,0,0,-0.1521,-0.1521,-0.1553,-0.1553,-0.1554,-0.1577,-0.1577,-0.1577,-0.1595,-0.1595,-0.1595,-0.1595,-0.1636,-0.1637,-0.1638,0,0,0,0,0,0,0,0,0,0,0,0,0,-0.1538,-0.1522,-0.1553,-0.1565,-0.1567,-0.1576,-0.1577,-0.1577,-0.1594,-0.1595,-0.1595,-0.1595,-0.1635,-0.1637,-0.1638,-0.1641,0,0,-0.1642,-0.1643,0,0,0,0,0,0,0,0,-0.1537,-0.1539,-0.1563,-0.1564,-0.1566,-0.1583,-0.1581,-0.1599,-0.1594,-0.1584,-0.1595,-0.1595,-0.162,-0.1623,-0.1626,-0.1643,-0.1644,-0.1642,-0.1643,-0.1644,-0.1644,0,0,0,0,0,0,0,-0.1536,-0.1538,-0.1562,-0.1563,-0.1565,-0.1569,-0.1572,-0.1584,-0.16,-0.1584,-0.1586,-0.1589,-0.1621,-0.1624,-0.1627,-0.1645,-0.1642,-0.1643,-0.1644,-0.1645,-0.1724,-0.1726,0,0,0,0,0,0,-0.1534,-0.1537,-0.1561,-0.1563,-0.1553,-0.157,-0.1573,-0.1577,-0.1599,-0.1603,-0.1589,-0.159,-0.1622,-0.1625,-0.1628,-0.1685,-0.1644,-0.1645,-0.1646,-0.1723,-0.1725,-0.1726,0,0,0,0,0,0,-0.1533,-0.1536,-0.156,-0.1551,-0.1554,-0.157,-0.1575,-0.1577,-0.1608,-0.1603,-0.1607,-0.162,-0.1622,-0.1626,-0.1662,-0.1685,-0.1646,-0.1647,-0.1722,-0.1724,-0.1725,-0.1765,0,0,0,0,0,0,-0.1532,-0.1535,-0.1556,-0.1551,-0.1555,-0.1582,-0.1575,-0.1578,-0.1608,-0.161,-0.163,-0.1632,-0.1623,-0.166,-0.1664,-0.1686,-0.1648,-0.172,-0.1723,-0.1725,-0.1762,-0.1768,-0.1773,0,0,0,0,0,-0.1531,-0.1554,-0.1557,-0.1561,-0.1577,-0.1583,-0.1587,-0.1598,-0.161,-0.1626,-0.1642,-0.1633,-0.1678,-0.1663,-0.1666,-0.1689,-0.1719,-0.1722,-0.1725,-0.176,-0.1767,-0.1773,0,0,0,0,0,0,-0.1556,-0.1558,-0.1561,-0.1586,-0.1592,-0.1587,-0.1611,-0.1617,-0.1643,-0.1656,-0.1651,-0.1655,-0.1687,-0.169,-0.1674,-0.172,-0.1697,-0.17,-0.1722,-0.1729,-0.1735,-0.1729,-0.1649,0,0,0,0,0,-0.1569,-0.1586,-0.1584,-0.1607,-0.1614,-0.1619,-0.1632,-0.1637,-0.165,-0.1663,-0.1677,-0.1693,-0.1697,-0.1717,-0.1719,-0.1757,-0.1731,-0.1774,-0.178,-0.1784,-0.1783,-0.1768,-0.1771,-0.1736,-0.1736,-0.1736,0,0,-0.1584,-0.1589,-0.16,-0.1613,-0.1622,-0.1635,-0.1629,-0.1655,-0.1673,-0.1664,-0.1711,-0.1711,-0.1709,-0.1737,-0.1754,-0.1749,-0.1781,-0.1788,-0.1792,-0.1788,-0.1771,-0.1774,-0.1777,-0.1738,-0.1737,-0.1737,0,0,-0.16,-0.1629,-0.1637,-0.165,-0.1667,-0.1672,-0.1687,-0.1701,-0.172,-0.1757,-0.1746,-0.1767,-0.1795,-0.179,-0.1791,-0.1836,-0.1801,-0.1842,-0.1878,-0.1864,-0.1866,-0.1868,-0.1831,-0.1829,-0.1857,-0.1857,-0.1857,0,-0.1615,-0.1627,-0.1643,-0.1655,-0.167,-0.1692,-0.1704,-0.1729,-0.1756,-0.1767,-0.1784,-0.1807,-0.1817,-0.1824,-0.1843,-0.1847,-0.1823,-0.1851,-0.1869,-0.187,-0.1871,-0.1834,-0.1831,-0.1859,-0.1859,-0.1859,-0.1858,0,-0.1617,-0.1647,-0.166,-0.1679,-0.1702,-0.1723,-0.1748,-0.1783,-0.1816,-0.1826,-0.1856,-0.1868,-0.1876,-0.1889,-0.1885,-0.1897,-0.187,-0.1866,-0.1847,-0.1877,-0.1836,-0.1832,-0.1862,-0.1862,-0.1861,-0.186,0,0,-0.1583,-0.1645,-0.165,-0.1672,-0.1718,-0.1731,-0.1779,-0.1805,-0.1829,-0.1873,-0.1891,-0.1919,-0.1923,-0.1924,-0.192,-0.1926,-0.192,-0.1911,-0.1909,-0.1865,-0.1868,-0.1732,-0.1714,-0.1916,-0.1916,-0.1916,-0.1832,0,-0.1572,-0.1604,-0.1637,-0.1681,-0.1701,-0.1749,-0.1785,-0.1822,-0.1858,-0.1889,-0.1909,-0.1927,-0.1936,-0.1945,-0.1951,-0.1923,-0.1914,-0.1942,-0.1854,-0.1851,-0.1718,-0.1707,-0.1916,-0.1829,-0.1829,-0.1828,-0.1827,0,-0.1541,-0.1574,-0.1613,-0.1683,-0.1696,-0.173,-0.1788,-0.1823,-0.187,-0.1898,-0.1923,-0.1932,-0.1948,-0.1955,-0.1925,-0.194,-0.1909,-0.189,-0.1886,-0.1741,-0.1707,-0.1797,-0.182,-0.1821,-0.1822,-0.1822,-0.1822,0,-0.1487,-0.1552,-0.1589,-0.1613,-0.1694,-0.1725,-0.1768,-0.1823,-0.1848,-0.19,-0.1912,-0.1933,-0.1934,-0.1919,-0.1888,-0.1908,-0.1834,-0.1852,-0.1693,-0.1682,-0.1814,-0.1813,-0.1818,-0.1818,-0.1818,-0.1818,-0.1819,0,-0.1445,-0.1478,-0.1575,-0.1595,-0.1635,-0.1706,-0.1745,-0.179,-0.1844,-0.1845,-0.1909,-0.1892,-0.1926,-0.189,-0.1872,-0.1751,-0.1814,-0.168,-0.1647,-0.1832,-0.1835,-0.181,-0.181,-0.1815,-0.1816,-0.1816,-0.1817,0,-0.1375,-0.1442,-0.1488,-0.1582,-0.1611,-0.1641,-0.1723,-0.174,-0.181,-0.181,-0.1824,-0.1854,-0.1794,-0.1792,-0.1747,-0.1696,-0.1624,-0.1564,-0.1738,-0.1719,-0.1489,-0.1493,-0.138,-0.1374,-0.137,-0.1366,-0.1362,0,-0.1339,-0.136,-0.146,-0.1483,-0.1529,-0.1589,-0.1614,-0.1705,-0.1708,-0.1754,-0.1723,-0.1705,-0.1699,-0.152,-0.1548,-0.1471,-0.146,-0.1422,-0.1482,-0.1462,-0.1442,-0.1454,-0.1463,-0.1355,-0.1354,-0.1352,-0.1351,0,-0.1265,-0.1315,-0.1353,-0.1386,-0.1425,-0.1455,-0.1496,-0.1491,-0.1563,-0.165,-0.1572,-0.1534,-0.1448,-0.1409,-0.1344,-0.1305,-0.1456,-0.1372,-0.1383,-0.144,-0.143,-0.1418,-0.1433,-0.1335,-0.1337,-0.1338,-0.1339,0,-0.1205,-0.1205,-0.1246,-0.1262,-0.1299,-0.1275,-0.1335,-0.1326,-0.1345,-0.1417,-0.138,-0.1372,-0.1414,-0.1316,-0.1263,-0.1202,-0.1198,-0.1187,-0.1208,-0.1226,-0.1215,-0.1183,-0.0964,0,0,0,0,0,-0.1127,-0.11,-0.111,-0.1108,-0.1138,-0.115,-0.1215,-0.1279,-0.1361,-0.1266,-0.1323,-0.1243,-0.1165,-0.1172,-0.1071,-0.1176,-0.1193,-0.1056,-0.1191,-0.1243,-0.1262,-0.1264,0,0,0,0,0,0,-0.107,-0.1071,-0.1057,-0.0957,-0.0933,-0.0937,-0.0975,-0.1052,-0.1012,-0.1116,-0.1074,-0.1163,-0.1096,-0.1182,-0.1039,-0.1039,-0.1098,-0.1073,-0.107,-0.1232,-0.125,-0.1265,-0.1273,0,0,0,0,0]},{"header":{"parameterUnit":"m.s-1","parameterCategory":2,"la1":30.2991,"la2":30.254,"lo1":-89.0895,"lo2":-89.0444,"dy":0.0017,"dx":0.0017,"nx":28,"ny":28,"refTime":"2023-10-19T09:00:00:Z","depth":"4","parameterNumber":3,"parameterNumberName":"V-component_of_CURRENTS"},"data":[0,0,0,0,0,0,0,0,0,0,0,0,0,0,0,0,0,0,0,0,0,0,0,0,0,0,0,0,0,0,0,0,0,0,0,0,0,0,0,0,0,0,0,0,0,0,0,0,0,0,0,0,0,0,0,0,0,0,-0.0326,-0.0326,0,-0.0315,-0.0315,-0.0315,-0.0315,-0.0315,-0.0315,-0.0315,-0.0271,-0.0269,-0.0268,0,0,0,0,0,0,0,0,0,0,0,0,0,-0.0322,-0.0322,-0.0326,-0.0326,-0.0326,-0.0315,-0.0315,-0.0315,-0.0315,-0.0315,-0.0315,-0.0315,-0.0271,-0.027,-0.0268,0,0,0,0,0,0,0,0,0,0,0,0,0,-0.0319,-0.0322,-0.0326,-0.0324,-0.0324,-0.0316,-0.0315,-0.0315,-0.0315,-0.0315,-0.0315,-0.0315,-0.0272,-0.027,-0.0268,-0.0254,0,0,-0.0262,-0.0261,0,0,0,0,0,0,0,0,-0.032,-0.032,-0.0325,-0.0324,-0.0324,-0.0316,-0.0298,-0.0293,-0.0315,-0.0319,-0.0315,-0.0315,-0.0282,-0.028,-0.0279,-0.0252,-0.025,-0.0262,-0.0261,-0.026,-0.0259,0,0,0,0,0,0,0,-0.032,-0.032,-0.0322,-0.0324,-0.0324,-0.0315,-0.0315,-0.0297,-0.03,-0.0318,-0.0318,-0.0316,-0.0282,-0.028,-0.0277,-0.0249,-0.0262,-0.026,-0.0259,-0.0258,-0.0204,-0.0204,0,0,0,0,0,0,-0.0321,-0.032,-0.0323,-0.0322,-0.0321,-0.0315,-0.0315,-0.0319,-0.0301,-0.0298,-0.0316,-0.0316,-0.0284,-0.028,-0.0276,-0.0256,-0.026,-0.0258,-0.0257,-0.0204,-0.0204,-0.0204,0,0,0,0,0,0,-0.0321,-0.0322,-0.0323,-0.032,-0.032,-0.0315,-0.0319,-0.0319,-0.0321,-0.0299,-0.0296,-0.032,-0.0284,-0.0278,-0.0265,-0.0255,-0.0257,-0.0256,-0.0205,-0.0204,-0.0204,-0.0218,0,0,0,0,0,0,-0.0321,-0.0322,-0.0328,-0.0321,-0.032,-0.0323,-0.0319,-0.0318,-0.0319,-0.0319,-0.0301,-0.0297,-0.0283,-0.0268,-0.0263,-0.0252,-0.0254,-0.0205,-0.0205,-0.0204,-0.0218,-0.0218,-0.0219,0,0,0,0,0,-0.0321,-0.0331,-0.0329,-0.0329,-0.0328,-0.0323,-0.0322,-0.0319,-0.0319,-0.0322,-0.031,-0.0298,-0.026,-0.0266,-0.0261,-0.0249,-0.0205,-0.0205,-0.0204,-0.0218,-0.0218,-0.0219,0,0,0,0,0,0,-0.0336,-0.0331,-0.0329,-0.0338,-0.0332,-0.0323,-0.0327,-0.0322,-0.0315,-0.0317,-0.0297,-0.0292,-0.0277,-0.0261,-0.0268,-0.0231,-0.0229,-0.0227,-0.0242,-0.0242,-0.0242,-0.0237,-0.0253,0,0,0,0,0,-0.0341,-0.0348,-0.0337,-0.0346,-0.0343,-0.0335,-0.0334,-0.0331,-0.0322,-0.032,-0.0305,-0.0287,-0.0268,-0.0255,-0.024,-0.022,-0.0192,-0.0207,-0.0207,-0.0207,-0.0199,-0.0146,-0.0141,-0.0201,-0.0201,-0.0201,0,0,-0.0351,-0.0349,-0.0353,-0.035,-0.0346,-0.0344,-0.0336,-0.0336,-0.0331,-0.0314,-0.0306,-0.029,-0.0265,-0.0246,-0.0236,-0.0231,-0.0178,-0.0206,-0.0207,-0.0198,-0.0145,-0.0139,-0.0134,-0.0201,-0.0201,-0.0201,0,0,-0.0371,-0.037,-0.0379,-0.0374,-0.0368,-0.0358,-0.0358,-0.0347,-0.034,-0.0329,-0.0313,-0.0286,-0.0269,-0.0237,-0.0221,-0.0209,-0.0186,-0.0212,-0.0202,-0.0151,-0.0145,-0.014,-0.0109,-0.0101,-0.0206,-0.0206,-0.0206,0,-0.0384,-0.0393,-0.0381,-0.0385,-0.0384,-0.0364,-0.037,-0.0355,-0.034,-0.0329,-0.033,-0.0283,-0.0257,-0.0217,-0.0213,-0.0206,-0.0188,-0.0205,-0.015,-0.0144,-0.0139,-0.0108,-0.0099,-0.0207,-0.0206,-0.0206,-0.0206,0,-0.0406,-0.0413,-0.0418,-0.0415,-0.0409,-0.0413,-0.0387,-0.0377,-0.0364,-0.0345,-0.0313,-0.0276,-0.0245,-0.023,-0.0217,-0.0165,-0.017,-0.0162,-0.015,-0.0133,-0.0103,-0.0093,-0.0207,-0.0207,-0.0207,-0.0207,0,0,-0.0438,-0.0435,-0.0438,-0.0443,-0.0427,-0.0426,-0.0408,-0.0386,-0.0374,-0.0342,-0.0321,-0.0268,-0.0246,-0.0225,-0.0197,-0.0145,-0.0087,-0.0139,-0.0136,-0.011,0.0007,-0.0012,-0.0003,-0.0076,-0.0074,-0.0073,0.0008,0,-0.0461,-0.0483,-0.0467,-0.048,-0.0488,-0.0459,-0.0445,-0.0417,-0.0389,-0.0361,-0.03,-0.0274,-0.0244,-0.0232,-0.0172,-0.0114,-0.006,-0.011,-0.0012,-0.0009,-0.0028,0.0009,-0.0067,0.0015,0.0018,0.0019,0.002,0,-0.0485,-0.0497,-0.0521,-0.0517,-0.0517,-0.0518,-0.0495,-0.0478,-0.042,-0.0396,-0.0344,-0.0306,-0.0225,-0.0207,-0.0076,-0.0116,-0.0052,-0.0001,0.0004,0.0001,-0.0009,-0.0001,0.0039,0.0037,0.0036,0.0035,0.0034,0,-0.052,-0.0531,-0.0555,-0.0556,-0.0547,-0.0549,-0.0541,-0.0496,-0.0481,-0.0419,-0.04,-0.0308,-0.0264,-0.0165,-0.0058,-0.0068,0.008,0.0081,0.0128,0.0126,0.0124,0.0118,0.0185,0.0185,0.0185,0.0185,0.0184,0,-0.0546,-0.0565,-0.058,-0.0594,-0.062,-0.0594,-0.0601,-0.0573,-0.0529,-0.0512,-0.0426,-0.0386,-0.025,-0.0155,-0.0059,0.0063,0.0084,0.0142,0.0156,0.0113,0.0105,0.0131,0.0123,0.0188,0.0187,0.0186,0.0186,0,-0.0573,-0.0584,-0.0616,-0.063,-0.064,-0.0659,-0.0658,-0.0659,-0.0603,-0.0577,-0.0561,-0.0437,-0.0308,-0.0175,-0.001,0.0056,0.0175,0.0213,0.0149,0.0155,0.0186,0.0177,0.0276,0.0276,0.0276,0.0277,0.0277,0,-0.0585,-0.0607,-0.0656,-0.0691,-0.0704,-0.0729,-0.075,-0.071,-0.0705,-0.0609,-0.06,-0.0466,-0.0376,-0.0155,-0.0012,0.0172,0.0195,0.0245,0.0234,0.0197,0.02,0.0191,0.0181,0.0277,0.0277,0.0277,0.0277,0,-0.0609,-0.0634,-0.0666,-0.0745,-0.0789,-0.0823,-0.0844,-0.0838,-0.0782,-0.0734,-0.0627,-0.0493,-0.0342,-0.0163,-0.0019,0.0112,0.0206,0.0248,0.0248,0.0238,0.0199,0.02,0.0191,0.0278,0.0278,0.0278,0.0277,0,-0.0631,-0.0668,-0.0727,-0.0788,-0.0853,-0.0897,-0.0897,-0.0877,-0.085,-0.0736,-0.0704,-0.0517,-0.0403,-0.0193,-0.006,0.0068,0.01,0.0125,0.0132,0.0134,0.0068,-0.0004,0.0036,0,0,0,0,0,-0.0649,-0.0701,-0.0767,-0.0833,-0.0895,-0.0927,-0.0952,-0.0937,-0.088,-0.0821,-0.0756,-0.0612,-0.0376,-0.0258,-0.0133,-0.0065,0.0111,0.0084,0.014,0.0281,0.028,0.0226,0,0,0,0,0,0,-0.0669,-0.0739,-0.0772,-0.0856,-0.09,-0.0963,-0.0979,-0.0944,-0.0894,-0.0817,-0.0689,-0.0596,-0.0365,-0.0447,-0.0132,-0.0088,-0.0041,0.0206,0.0208,0.0282,0.0281,0.028,0.0224,0,0,0,0,0]}]]